Tiempo cada hora Abaran

Hoy, 23 Junio, Miércoles

Tiempo Temperatura Precipitaciones Viento Presión Humedad
00:00 +23°C° 0.1 mm 1 mps 728 mmHg 53%
01:00 +22°C° 0 mm 1 mps 727 mmHg 54%
02:00 +22°C° 0 mm 1 mps 727 mmHg 55%
03:00 +21°C° 0 mm 1 mps 727 mmHg 55%
04:00 +21°C° 0 mm 1 mps 727 mmHg 55%
05:00 +22°C° 0 mm 1 mps 728 mmHg 54%
06:00 +22°C° 0 mm 1 mps 728 mmHg 53%
07:00 +23°C° 0 mm 1 mps 728 mmHg 51%
08:00 +24°C° 0 mm 1 mps 728 mmHg 48%
09:00 +25°C° 0 mm 1 mps 729 mmHg 45%
10:00 +26°C° 0 mm 3 mps 729 mmHg 43%
11:00 +27°C° 0 mm 4 mps 728 mmHg 40%
12:00 +28°C° 0 mm 5 mps 728 mmHg 38%
13:00 +28°C° 0 mm 6 mps 728 mmHg 41%
14:00 +27°C° 0 mm 6 mps 728 mmHg 44%
15:00 +27°C° 0 mm 7 mps 728 mmHg 47%
16:00 +26°C° 0.1 mm 6 mps 728 mmHg 50%
17:00 +25°C° 0.1 mm 5 mps 729 mmHg 54%
18:00 +25°C° 0.1 mm 4 mps 729 mmHg 57%
19:00 +23°C° 0 mm 4 mps 729 mmHg 61%
20:00 +22°C° 0 mm 3 mps 730 mmHg 65%
21:00 +21°C° 0 mm 2 mps 730 mmHg 69%
22:00 +21°C° 0 mm 2 mps 730 mmHg 71%
23:00 +20°C° 0 mm 2 mps 730 mmHg 73%

Mañana, 24 Junio, Jueves

Tiempo Temperatura Precipitaciones Viento Presión Humedad
00:00 +21°C° 0 mm 1 mps 730 mmHg 75%
01:00 +20°C° 0 mm 1 mps 730 mmHg 78%
02:00 +20°C° 0 mm 1 mps 730 mmHg 80%
03:00 +19°C° 0 mm 1 mps 730 mmHg 83%
04:00 +20°C° 0 mm 1 mps 730 mmHg 82%
05:00 +20°C° 0 mm 1 mps 731 mmHg 81%
06:00 +20°C° 0 mm 1 mps 731 mmHg 79%
07:00 +22°C° 0 mm 1 mps 731 mmHg 73%
08:00 +23°C° 0 mm 2 mps 731 mmHg 66%
09:00 +24°C° 0 mm 2 mps 731 mmHg 59%
10:00 +25°C° 0 mm 3 mps 731 mmHg 54%
11:00 +27°C° 0 mm 4 mps 731 mmHg 48%
12:00 +28°C° 0 mm 5 mps 731 mmHg 43%
13:00 +28°C° 0 mm 5 mps 731 mmHg 44%
14:00 +28°C° 0 mm 6 mps 731 mmHg 44%
15:00 +28°C° 0 mm 6 mps 731 mmHg 45%
16:00 +27°C° 0 mm 6 mps 731 mmHg 49%
17:00 +26°C° 0 mm 5 mps 731 mmHg 52%
18:00 +25°C° 0 mm 5 mps 731 mmHg 56%
19:00 +23°C° 0 mm 4 mps 731 mmHg 60%
20:00 +22°C° 0 mm 3 mps 731 mmHg 65%
21:00 +21°C° 0 mm 2 mps 732 mmHg 69%
22:00 +22°C° 0 mm 1 mps 732 mmHg 70%
23:00 +21°C° 0 mm 1 mps 732 mmHg 72%

Pasado mañana, 25 Junio, Viernes

Tiempo Temperatura Precipitaciones Viento Presión Humedad
00:00 +21°C° 0 mm 1 mps 731 mmHg 73%
01:00 +21°C° 0 mm 1 mps 731 mmHg 74%
02:00 +20°C° 0 mm 1 mps 731 mmHg 75%
03:00 +18°C° 0 mm 0 mps 731 mmHg 77%
04:00 +20°C° 0 mm 1 mps 731 mmHg 74%
05:00 +21°C° 0 mm 1 mps 731 mmHg 72%
06:00 +21°C° 0 mm 1 mps 731 mmHg 70%
07:00 +23°C° 0 mm 1 mps 732 mmHg 64%
08:00 +24°C° 0 mm 2 mps 732 mmHg 57%
09:00 +26°C° 0 mm 2 mps 732 mmHg 51%
10:00 +27°C° 0 mm 3 mps 732 mmHg 48%
11:00 +28°C° 0 mm 4 mps 731 mmHg 44%
12:00 +29°C° 0 mm 5 mps 731 mmHg 41%
13:00 +29°C° 0 mm 5 mps 731 mmHg 40%
14:00 +30°C° 0 mm 5 mps 731 mmHg 40%
15:00 +30°C° 0 mm 6 mps 730 mmHg 39%
16:00 +29°C° 0 mm 5 mps 730 mmHg 42%
17:00 +28°C° 0 mm 5 mps 730 mmHg 45%
18:00 +27°C° 0 mm 4 mps 730 mmHg 48%
19:00 +26°C° 0 mm 3 mps 730 mmHg 53%
20:00 +25°C° 0 mm 3 mps 730 mmHg 58%
21:00 +24°C° 0 mm 2 mps 731 mmHg 63%
22:00 +23°C° 0 mm 2 mps 731 mmHg 67%
23:00 +21°C° 0 mm 2 mps 731 mmHg 70%

26 Junio, Sábado

Tiempo Temperatura Precipitaciones Viento Presión Humedad
00:00 +22°C° 0 mm 1 mps 731 mmHg 74%
01:00 +21°C° 0 mm 1 mps 731 mmHg 73%
02:00 +21°C° 0 mm 1 mps 730 mmHg 73%
03:00 +21°C° 0 mm 1 mps 730 mmHg 72%
04:00 +21°C° 0 mm 1 mps 730 mmHg 68%
05:00 +22°C° 0 mm 1 mps 730 mmHg 63%
06:00 +20°C° 0 mm 0 mps 730 mmHg 59%
07:00 +24°C° 0 mm 1 mps 730 mmHg 50%
08:00 +26°C° 0 mm 2 mps 730 mmHg 41%
09:00 +27°C° 0 mm 3 mps 731 mmHg 32%
10:00 +29°C° 0 mm 3 mps 731 mmHg 30%
11:00 +30°C° 0 mm 4 mps 731 mmHg 29%
12:00 +32°C° 0 mm 4 mps 730 mmHg 27%
13:00 +32°C° 0 mm 4 mps 730 mmHg 26%
14:00 +33°C° 0 mm 4 mps 730 mmHg 26%
15:00 +33°C° 0 mm 5 mps 730 mmHg 26%
16:00 +32°C° 0 mm 4 mps 729 mmHg 27%
17:00 +32°C° 0 mm 4 mps 729 mmHg 29%
18:00 +30°C° 0 mm 3 mps 729 mmHg 30%
19:00 +28°C° 0 mm 3 mps 729 mmHg 35%
20:00 +27°C° 0 mm 2 mps 729 mmHg 41%
21:00 +25°C° 0 mm 2 mps 730 mmHg 46%
22:00 +25°C° 0 mm 1 mps 730 mmHg 49%
23:00 +24°C° 0 mm 1 mps 730 mmHg 52%

27 Junio, Domingo

Tiempo Temperatura Precipitaciones Viento Presión Humedad
00:00 +23°C° 0 mm 1 mps 729 mmHg 55%
01:00 +23°C° 0 mm 1 mps 729 mmHg 55%
02:00 +22°C° 0 mm 1 mps 729 mmHg 55%
03:00 +22°C° 0 mm 1 mps 729 mmHg 55%
04:00 +23°C° 0 mm 1 mps 729 mmHg 53%
05:00 +23°C° 0 mm 1 mps 729 mmHg 50%
06:00 +24°C° 0 mm 1 mps 729 mmHg 47%
07:00 +26°C° 0 mm 1 mps 729 mmHg 43%
08:00 +28°C° 0 mm 1 mps 729 mmHg 38%
09:00 +30°C° 0 mm 1 mps 729 mmHg 33%
10:00 +32°C° 0 mm 1 mps 729 mmHg 30%
11:00 +34°C° 0 mm 2 mps 729 mmHg 27%
12:00 +36°C° 0 mm 3 mps 729 mmHg 24%
13:00 +36°C° 0 mm 4 mps 729 mmHg 23%
14:00 +37°C° 0 mm 5 mps 729 mmHg 23%
15:00 +38°C° 0 mm 6 mps 728 mmHg 23%
16:00 +36°C° 0 mm 5 mps 728 mmHg 25%
17:00 +35°C° 0 mm 5 mps 728 mmHg 27%
18:00 +34°C° 0 mm 4 mps 728 mmHg 30%
19:00 +32°C° 0 mm 4 mps 729 mmHg 34%
20:00 +29°C° 0 mm 3 mps 729 mmHg 39%
21:00 +28°C° 0 mm 2 mps 729 mmHg 43%
22:00 +27°C° 0 mm 2 mps 729 mmHg 45%
23:00 +26°C° 0 mm 1 mps 729 mmHg 47%

28 Junio, Lunes

Tiempo Temperatura Precipitaciones Viento Presión Humedad
00:00 +25°C° 0 mm 1 mps 729 mmHg 49%
01:00 +25°C° 0 mm 1 mps 729 mmHg 50%
02:00 +24°C° 0 mm 1 mps 729 mmHg 52%
03:00 +24°C° 0 mm 1 mps 729 mmHg 53%
04:00 +24°C° 0 mm 1 mps 729 mmHg 52%
05:00 +24°C° 0 mm 1 mps 729 mmHg 52%
06:00 +25°C° 0 mm 1 mps 730 mmHg 51%
07:00 +26°C° 0 mm 1 mps 730 mmHg 46%
08:00 +28°C° 0 mm 2 mps 730 mmHg 41%
09:00 +30°C° 0 mm 2 mps 730 mmHg 36%
10:00 +31°C° 0 mm 3 mps 730 mmHg 33%
11:00 +33°C° 0 mm 4 mps 730 mmHg 31%
12:00 +35°C° 0 mm 5 mps 730 mmHg 29%
13:00 +35°C° 0 mm 5 mps 730 mmHg 29%
14:00 +35°C° 0 mm 5 mps 730 mmHg 29%
15:00 +35°C° 0 mm 6 mps 730 mmHg 30%
16:00 +34°C° 0 mm 5 mps 729 mmHg 32%
17:00 +33°C° 0 mm 5 mps 729 mmHg 34%
18:00 +32°C° 0 mm 5 mps 729 mmHg 36%
19:00 +29°C° 0 mm 4 mps 729 mmHg 42%
20:00 +28°C° 0 mm 3 mps 730 mmHg 47%
21:00 +26°C° 0 mm 2 mps 730 mmHg 53%
22:00 +25°C° 0 mm 1 mps 730 mmHg 55%
23:00 +25°C° 0 mm 1 mps 729 mmHg 57%
Mostrar más

Necesitamos Su Consentimiento

Meteoprog y nuestros Proveedores de Servicios pueden almacenar y acceder a sus datos personales como cookies, identificadores de dispositivo u otras tecnologías similares de su dispositivo y procesar dichos datos para personalizar contenido y anuncios, además de ofrecer funciones de redes sociales y analizar el tráfico.

  • Almacenar y/o acceder a información en su dispositivo

    Se puede almacenar o acceder a cookies, identificadores de dispositivo u otra información de su dispositivo para los fines anteriormente indicados.

  • Anuncios y contenido personalizados, medición de anuncios y contenido, percepciones del público, y desarrollo de productos

    Los anuncios y el contenido pueden personalizarse en base a su perfil. Se pueden añadir más datos para personalizar mejor los anuncios y contenidos. Se puede medir el rendimiento de los anuncios y contenidos. Se puede obtener la percepción sobre el público que ha visto los anuncios y contenidos. Dichos datos pueden usarse para desarrollar o mejorar la experiencia del usuario, sistemas y software.

Al hacer clic en ‘Estoy De Acuerdo’ usted permitirá el uso de las cookies, identificadores de dispositivo, balizas web u otras tecnologías similares indicadas. Su configuración puede cambiarse desde el navegador de su dispositivo.

Para ciertos fines, los intereses legítimos pueden ser considerados por encima del consentimiento. Puede leer más sobre ello en nuestra Política de Privacidad y Cookies.